| time (UTC) | temp C | wind direction | speed KPH | gust KPH | rain 1hr cm | rain 24hr cm | rain mn cm | humidity % | barometer mb |
| 20260831114711 | 21 | 284 | 8.0 | 16.1 | 0.00 | 0.00 | 0.00 | 87 | 1009.9 |
| 20260831113710 | 21 | 261 | 4.8 | 16.1 | 0.00 | 0.00 | 0.00 | 87 | 1009.4 |
| 20260831111711 | 22 | 282 | 14.5 | 22.5 | 0.00 | 0.00 | 0.00 | 87 | 1009.1 |
| 20260831110710 | 22 | 285 | 11.3 | 19.3 | 0.00 | 0.00 | 0.00 | 89 | 1008.9 |
| 20260831105711 | 22 | 286 | 4.8 | 11.3 | 0.00 | 0.00 | 0.00 | 90 | 1008.8 |
| 20260831104711 | 22 | 260 | 3.2 | 9.7 | 0.00 | 0.00 | 0.00 | 90 | 1008.6 |
| 20260831103710 | 22 | 255 | 4.8 | 14.5 | 0.00 | 0.00 | 0.00 | 90 | 1008.2 |
| 20260831100711 | 22 | 253 | 4.8 | 9.7 | 0.00 | 0.00 | 0.00 | 92 | 1007.8 |
| 20260831095710 | 22 | 270 | 3.2 | 4.8 | 0.00 | 0.00 | 0.00 | 92 | 1007.9 |
| 20260831094711 | 22 | 299 | 1.6 | 3.2 | 0.00 | 0.00 | 0.00 | 92 | 1007.8 |
| 20260831091711 | 21 | 266 | 3.2 | 4.8 | 0.00 | 0.00 | 0.00 | 91 | 1007.6 |
| 20260831090710 | 21 | 261 | 1.6 | 4.8 | 0.00 | 0.00 | 0.00 | 91 | 1007.5 |
| 20260831085711 | 21 | 298 | 1.6 | 4.8 | 0.00 | 0.00 | 0.00 | 91 | 1007.3 |
| 20260831084711 | 22 | 304 | 0.0 | 3.2 | 0.00 | 0.00 | 0.00 | 91 | 1007.2 |
| 20260831083710 | 22 | 278 | 0.0 | 3.2 | 0.00 | 0.00 | 0.00 | 91 | 1007.1 |
| 20260831082711 | 22 | 295 | 1.6 | 4.8 | 0.00 | 0.00 | 0.00 | 91 | 1007.4 |
| 20260831081711 | 22 | 311 | 3.2 | 8.0 | 0.00 | 0.00 | 0.00 | 90 | 1007.2 |
| 20260831080711 | 22 | 307 | 1.6 | 4.8 | 0.00 | 0.00 | 0.00 | 90 | 1007.1 |
| 20260831075710 | 22 | 331 | 0.0 | 0.0 | 0.00 | 0.00 | 0.00 | 90 | 1007.1 |
| 20260831074710 | 22 | 331 | 0.0 | 0.0 | 0.00 | 0.00 | 0.00 | 90 | 1007.1 |
| 20260831072711 | 22 | 182 | 0.0 | 3.2 | 0.00 | 0.00 | 0.00 | 90 | 1007.2 |
| 20260831071711 | 22 | 182 | 1.6 | 4.8 | 0.00 | 0.00 | 0.00 | 90 | 1007.2 |
| 20260831065711 | 22 | 177 | 1.6 | 4.8 | 0.00 | 0.00 | 0.00 | 90 | 1007.2 |
| 20260831064710 | 22 | 194 | 0.0 | 3.2 | 0.00 | 0.00 | 0.00 | 91 | 1007.2 |
| 20260831063710 | 23 | 194 | 1.6 | 3.2 | 0.00 | 0.00 | 0.00 | 91 | 1007.3 |
| 20260831062711 | 23 | 183 | 1.6 | 8.0 | 0.00 | 0.00 | 0.00 | 91 | 1007.0 |
| 20260831061710 | 23 | 172 | 4.8 | 8.0 | 0.00 | 0.00 | 0.00 | 91 | 1007.1 |
| 20260831060710 | 23 | 169 | 0.0 | 3.2 | 0.00 | 0.00 | 0.00 | 91 | 1006.9 |
| 20260831055711 | 23 | 169 | 1.6 | 3.2 | 0.00 | 0.00 | 0.00 | 91 | 1007.0 |
| 20260831054711 | 23 | 169 | 0.0 | 3.2 | 0.00 | 0.00 | 0.00 | 91 | 1006.7 |
| 20260831053711 | 23 | 169 | 0.0 | 1.6 | 0.00 | 0.00 | 0.00 | 90 | 1006.6 |
| 20260831052710 | 23 | 168 | 0.0 | 1.6 | 0.00 | 0.00 | 0.00 | 90 | 1006.5 |
| 20260831050710 | 23 | 168 | 1.6 | 3.2 | 0.00 | 0.00 | 0.00 | 89 | 1006.3 |
| 20260831045711 | 23 | 169 | 0.0 | 0.0 | 0.00 | 0.00 | 0.00 | 89 | 1006.4 |
| 20260831044710 | 23 | 168 | 0.0 | 0.0 | 0.00 | 0.00 | 0.00 | 88 | 1006.4 |
| 20260831043711 | 23 | 168 | 0.0 | 0.0 | 0.00 | 0.00 | 0.00 | 88 | 1006.6 |
| 20260831042711 | 23 | 168 | 0.0 | 0.0 | 0.00 | 0.00 | 0.00 | 87 | 1006.3 |
| 20260831040711 | 24 | 168 | 0.0 | 0.0 | 0.00 | 0.00 | 0.00 | 86 | 1006.3 |
| 20260831035710 | 24 | 168 | 0.0 | 0.0 | 0.00 | 0.00 | 0.00 | 86 | 1006.6 |
| 20260831034710 | 25 | 169 | 0.0 | 0.0 | 0.00 | 0.00 | 0.00 | 85 | 1006.4 |
| 20260831033710 | 25 | 169 | 0.0 | 0.0 | 0.00 | 0.00 | 0.00 | 85 | 1006.3 |
| 20260831032711 | 25 | 169 | 0.0 | 0.0 | 0.00 | 0.00 | 0.00 | 84 | 1006.6 |
| 20260831031710 | 25 | 169 | 0.0 | 0.0 | 0.00 | 0.00 | 0.00 | 84 | 1006.6 |
| 20260831030710 | 25 | 169 | 0.0 | 0.0 | 0.00 | 0.00 | 0.00 | 83 | 1006.8 |
| 20260831025711 | 25 | 169 | 0.0 | 0.0 | 0.00 | 0.00 | 0.00 | 83 | 1006.7 |
| 20260831024711 | 26 | 169 | 0.0 | 1.6 | 0.00 | 0.00 | 0.00 | 83 | 1006.9 |
| 20260831023710 | 26 | 169 | 1.6 | 3.2 | 0.00 | 0.00 | 0.00 | 83 | 1006.5 |
| 20260831022711 | 26 | 169 | 3.2 | 4.8 | 0.00 | 0.00 | 0.00 | 82 | 1006.7 |
| 20260831021711 | 26 | 271 | 0.0 | 0.0 | 0.00 | 0.00 | 0.00 | 80 | 1006.7 |
| 20260831015711 | 27 | 271 | 1.6 | 1.6 | 0.00 | 0.00 | 0.00 | 79 | 1006.3 |
| 20260831014710 | 27 | 270 | 1.6 | 1.6 | 0.00 | 0.00 | 0.00 | 78 | 1005.9 |
| 20260831013710 | 27 | 270 | 1.6 | 3.2 | 0.00 | 0.00 | 0.00 | 78 | 1006.1 |
| 20260831012711 | 27 | 270 | 1.6 | 3.2 | 0.00 | 0.00 | 0.00 | 77 | 1006.2 |
| 20260831011710 | 28 | 270 | 1.6 | 3.2 | 0.00 | 0.00 | 0.00 | 76 | 1006.0 |
| 20260831010710 | 28 | 270 | 1.6 | 3.2 | 0.00 | 0.00 | 0.00 | 75 | 1006.0 |
| 20260831005710 | 29 | 265 | 3.2 | 4.8 | 0.00 | 0.00 | 0.00 | 73 | 1006.0 |
| 20260831004711 | 30 | 286 | 1.6 | 3.2 | 0.00 | 0.00 | 0.00 | 71 | 1005.9 |
| 20260831003711 | 30 | 215 | 1.6 | 8.0 | 0.00 | 0.00 | 0.00 | 70 | 1006.0 |
| 20260831002710 | 30 | 217 | 4.8 | 9.7 | 0.00 | 0.00 | 0.00 | 69 | 1006.0 |
| 20260831001710 | 30 | 199 | 4.8 | 11.3 | 0.00 | 0.00 | 0.00 | 68 | 1006.0 |
| 20260831000710 | 31 | 203 | 8.0 | 12.9 | 0.00 | 0.00 | 0.00 | 67 | 1005.9 |
| 20260830235711 | 31 | 205 | 8.0 | 14.5 | 0.00 | 0.00 | 0.00 | 67 | 1006.0 |
| 20260830234710 | 31 | 210 | 8.0 | 19.3 | 0.00 | 0.00 | 0.00 | 66 | 1006.1 |
| 20260830233711 | 31 | 207 | 8.0 | 14.5 | 0.00 | 0.00 | 0.00 | 66 | 1006.1 |
| 20260830232711 | 31 | 216 | 8.0 | 12.9 | 0.00 | 0.00 | 0.00 | 65 | 1006.1 |
| 20260830231711 | 31 | 206 | 8.0 | 24.1 | 0.00 | 0.00 | 0.00 | 65 | 1005.9 |
| 20260830230710 | 32 | 193 | 9.7 | 20.9 | 0.00 | 0.00 | 0.00 | 65 | 1005.9 |
| 20260830225711 | 32 | 184 | 11.3 | 22.5 | 0.00 | 0.00 | 0.00 | 64 | 1005.9 |
| 20260830224710 | 32 | 173 | 14.5 | 22.5 | 0.00 | 0.00 | 0.00 | 62 | 1005.9 |
| 20260830223710 | 32 | 217 | 11.3 | 24.1 | 0.00 | 0.00 | 0.00 | 63 | 1005.8 |
| 20260830222711 | 32 | 175 | 14.5 | 22.5 | 0.00 | 0.00 | 0.00 | 64 | 1005.3 |
| 20260830221710 | 32 | 194 | 14.5 | 24.1 | 0.00 | 0.00 | 0.00 | 62 | 1005.4 |
| 20260830220710 | 32 | 181 | 14.5 | 19.3 | 0.00 | 0.00 | 0.00 | 62 | 1005.3 |
| 20260830213711 | 33 | 213 | 9.7 | 19.3 | 0.00 | 0.00 | 0.00 | 58 | 1005.3 |
| 20260830212710 | 33 | 220 | 11.3 | 19.3 | 0.00 | 0.00 | 0.00 | 57 | 1005.3 |
| 20260830210711 | 33 | 178 | 11.3 | 19.3 | 0.00 | 0.00 | 0.00 | 57 | 1005.2 |
| 20260830205712 | 33 | 197 | 9.7 | 19.3 | 0.00 | 0.00 | 0.00 | 57 | 1005.4 |
| 20260830203711 | 32 | 182 | 9.7 | 19.3 | 0.00 | 0.00 | 0.00 | 56 | 1005.4 |
| 20260830202710 | 32 | 193 | 9.7 | 14.5 | 0.00 | 0.00 | 0.00 | 57 | 1005.4 |
| 20260830201711 | 32 | 188 | 11.3 | 19.3 | 0.00 | 0.00 | 0.00 | 57 | 1005.8 |
| 20260830200710 | 32 | 198 | 9.7 | 19.3 | 0.00 | 0.00 | 0.00 | 57 | 1005.7 |
| 20260830195711 | 32 | 219 | 4.8 | 11.3 | 0.00 | 0.00 | 0.00 | 54 | 1005.8 |
| 20260830194710 | 33 | 165 | 8.0 | 14.5 | 0.00 | 0.00 | 0.00 | 55 | 1005.6 |
| 20260830193710 | 32 | 194 | 3.2 | 14.5 | 0.00 | 0.00 | 0.00 | 59 | 1005.5 |
| 20260830192710 | 32 | 173 | 6.4 | 14.5 | 0.00 | 0.00 | 0.00 | 56 | 1005.7 |
| 20260830190710 | 31 | 213 | 8.0 | 12.9 | 0.00 | 0.00 | 0.00 | 59 | 1005.9 |
| 20260830185710 | 31 | 242 | 6.4 | 11.3 | 0.00 | 0.00 | 0.00 | 62 | 1005.7 |
| 20260830183711 | 31 | 313 | 9.7 | 14.5 | 0.00 | 0.00 | 0.00 | 61 | 1005.2 |
| 20260830182711 | 31 | 273 | 11.3 | 19.3 | 0.00 | 0.00 | 0.00 | 62 | 1005.0 |
| 20260830181711 | 30 | 294 | 6.4 | 19.3 | 0.00 | 0.00 | 0.00 | 64 | 1005.6 |
| 20260830180711 | 30 | 318 | 9.7 | 16.1 | 0.00 | 0.00 | 0.00 | 64 | 1005.7 |
| 20260830175711 | 30 | 216 | 8.0 | 19.3 | 0.00 | 0.00 | 0.00 | 59 | 1006.0 |
| 20260830174710 | 30 | 210 | 9.7 | 20.9 | 0.00 | 0.00 | 0.00 | 60 | 1006.5 |
| 20260830173711 | 30 | 199 | 14.5 | 22.5 | 0.00 | 0.00 | 0.00 | 60 | 1006.5 |
| 20260830172711 | 30 | 171 | 11.3 | 22.5 | 0.00 | 0.00 | 0.00 | 60 | 1006.5 |
| 20260830171711 | 30 | 211 | 11.3 | 19.3 | 0.00 | 0.00 | 0.00 | 60 | 1006.6 |
| 20260830170710 | 29 | 219 | 9.7 | 16.1 | 0.00 | 0.00 | 0.00 | 60 | 1006.3 |
| 20260830165711 | 29 | 214 | 11.3 | 14.5 | 0.00 | 0.00 | 0.00 | 61 | 1006.4 |
| 20260830164711 | 29 | 182 | 11.3 | 19.3 | 0.00 | 0.00 | 0.00 | 61 | 1006.2 |
| 20260830162711 | 28 | 248 | 9.7 | 16.1 | 0.00 | 0.00 | 0.00 | 62 | 1006.2 |
| 20260830161710 | 28 | 223 | 4.8 | 11.3 | 0.00 | 0.00 | 0.00 | 65 | 1006.2 |
| 20260830160711 | 27 | 222 | 4.8 | 11.3 | 0.00 | 0.00 | 0.00 | 66 | 1006.5 |
| 20260830154710 | 27 | 205 | 4.8 | 9.7 | 0.00 | 0.00 | 0.00 | 66 | 1006.1 |
| 20260830153710 | 27 | 211 | 3.2 | 12.9 | 0.00 | 0.00 | 0.00 | 68 | 1005.9 |
| 20260830151711 | 26 | 286 | 3.2 | 11.3 | 0.00 | 0.00 | 0.00 | 71 | 1006.1 |
| 20260830150711 | 26 | 319 | 3.2 | 8.0 | 0.00 | 0.00 | 0.00 | 74 | 1006.1 |
| 20260830144710 | 25 | 316 | 3.2 | 9.7 | 0.00 | 0.00 | 0.00 | 79 | 1006.2 |
| 20260830143710 | 25 | 286 | 3.2 | 8.0 | 0.00 | 0.00 | 0.00 | 77 | 1006.3 |
| 20260830141711 | 25 | 294 | 4.8 | 12.9 | 0.00 | 0.00 | 0.00 | 75 | 1006.3 |
| 20260830140710 | 25 | 315 | 9.7 | 14.5 | 0.00 | 0.00 | 0.00 | 75 | 1006.2 |
| 20260830135711 | 25 | 325 | 9.7 | 14.5 | 0.00 | 0.00 | 0.00 | 73 | 1006.4 |
| 20260830133712 | 25 | 225 | 4.8 | 14.5 | 0.00 | 0.00 | 0.00 | 69 | 1005.9 |
| 20260830132711 | 24 | 218 | 6.4 | 12.9 | 0.00 | 0.00 | 0.00 | 69 | 1005.7 |
| 20260830131711 | 24 | 190 | 4.8 | 8.0 | 0.00 | 0.00 | 0.00 | 70 | 1005.5 |
| 20260830125711 | 23 | 209 | 8.0 | 11.3 | 0.00 | 0.00 | 0.00 | 73 | 1005.4 |
| 20260830124711 | 23 | 185 | 4.8 | 11.3 | 0.00 | 0.00 | 0.00 | 74 | 1005.3 |
| 20260830122710 | 23 | 165 | 8.0 | 12.9 | 0.00 | 0.00 | 0.00 | 75 | 1005.0 |
| 20260830121710 | 23 | 171 | 4.8 | 9.7 | 0.00 | 0.00 | 0.00 | 75 | 1004.8 |
| 20260830120710 | 23 | 171 | 4.8 | 11.3 | 0.00 | 0.00 | 0.00 | 75 | 1004.7 |